Location: Bluff Heights
(33.7692°N, 118.1592°W)
Time: 04:12:25
(UTC+00:00)

Vanguard 1 Rocket - Pass Details

Date: 04 October 2021
Orbit: 650 x 4225 km, 34.3° (Epoch: 24 October)

Event Time Altitude Azimuth Distance (km) Brightness Sun altitude
Rises 02:39:05 0° 255° (WSW) 3,339 11.8 -14.4°
Reaches altitude 10° 02:41:44 10° 254° (WSW) 2,206 10.5 -15.0°
Maximum altitude 02:46:24 78° 168° (SSE) 663 6.6 -15.9°
Enters shadow 02:48:38 29° 85° (E) 1,204 7.4 -16.4°
